Home   Weather   Worthing   Past weeks
Flag for United Kingdom

Past Weather in Worthing, England, United Kingdom — Yesterday and Last 2 Weeks

Now
57 °F

Sunny.


Feels Like: 55 °F
Forecast: 61 / 50 °F
Wind: 8 mph from West

Location: Shoreham Airport

Current Time: May 27, 2019 at 8:57:00 am

Latest Report: May 27, 2019 at 8:20 am


Visibility: 10 mi

Pressure: 29.89 "Hg

Humidity: 77%

Dew Point: 50 °F

Location of WorthingLocation

Past Weather in Worthing — Graph

°F

Worthing Temperature Yesterday

Maximum temperature yesterday: 63 °F (at 5:20 pm)
Minimum temperature yesterday: 57 °F (at 1:20 pm)
Average temperature yesterday: 59 °F

High & Low Weather Summary for the Past Weeks

 TemperatureHumidityPressure
High68 °F (May 24, 11:50 am)94% (May 19, 9:20 am)30.72 "Hg (May 19, 9:20 am)
Low50 °F (May 15, 7:50 am)34% (May 16, 4:20 pm)29.71 "Hg (May 17, 4:50 pm)
Average60 °F66%30.12 "Hg
* Reported May 11 7:50 pm — May 26 6:50 pm, Worthing. Weather by CustomWeather, © 2019

Note: Actual official high and low records may vary slightly from our data, if they occured in-between our weather recording intervals... More about our weather records

Advertising

Worthing Weather History for the Previous 24 Hours

Scroll right to see more
 ConditionsComfort  
Time TempWeatherWind HumidityBarometerVisibility
6:50 pm
Sun, May 26
59 °FPartly sunny.18 mph88%29.89 "Hg3 mi
6:20 pm59 °FPartly sunny.20 mph88%29.89 "Hg4 mi
5:50 pm59 °FBroken clouds.28 mph88%29.89 "Hg4 mi
5:20 pm63 °FScattered clouds.18 mph83%29.89 "Hg5 mi
4:50 pm59 °FPartly sunny.18 mph88%29.92 "HgN/A
4:20 pm61 °FScattered clouds.17 mph88%29.92 "HgN/A
3:50 pm61 °FScattered clouds.20 mph88%29.92 "HgN/A
3:20 pm61 °FScattered clouds.16 mph83%29.92 "HgN/A
2:50 pm57 °FBroken clouds.15 mph94%29.95 "HgN/A
2:20 pm57 °FPartly sunny.20 mph94%29.95 "HgN/A
1:50 pm57 °FPartly sunny.18 mph94%29.95 "HgN/A
1:20 pm57 °FBroken clouds.20 mph94%29.95 "Hg6 mi
12:50 pm59 °FBroken clouds.20 mph88%29.95 "Hg6 mi
12:20 pm59 °FBroken clouds.20 mph82%29.98 "HgN/A
11:50 am59 °FBroken clouds.17 mph88%29.98 "HgN/A
11:20 am59 °FPartly sunny.20 mph82%29.98 "HgN/A
10:50 am61 °FPassing clouds.20 mph83%29.98 "HgN/A
Weather by CustomWeather, © 2019

See weather overview